Location: Alto Pass Reservoir
(37.5801°N, 89.3084°W)
Time: 01:23:32
(UTC+00:00)

Cosmos 2298 Rocket - Pass Details

Date: 14 July 2022
Orbit: 775 x 784 km, 74.0° (Epoch: 15 August)

Event Time Altitude Azimuth Distance (km) Brightness Sun altitude
Rises 08:32:21 0° 326° (NW) 3,277 7.5 -21.2°
Reaches altitude 10° 08:35:15 10° 311° (NW) 2,343 6.5 -20.8°
Enters shadow 08:38:19 21° 277° (W) 1,722 5.5 -20.4°
